Location: *
(45.5667°S, 177.5167°W)
Time: 16:27:37
(UTC+00:00)

Cosmos 2173 Rocket - Pass Details

Date: 29 May 2022
Orbit: 945 x 1000 km, 83.0° (Epoch: 28 June)

Event Time Altitude Azimuth Distance (km) Brightness Sun altitude
Rises 04:50:39 0° 185° (S) 3,754 6.9 -5.9°
Reaches altitude 10° 04:53:19 10° 180° (S) 2,793 6.2 -6.4°
Maximum altitude 04:59:33 51° 104° (ESE) 1,232 4.2 -7.4°
Drops below altitude 10° 05:05:38 10° 28° (NNE) 2,726 6.3 -8.3°
Sets 05:08:12 0° 23° (NNE) 3,657 7.0 -8.7°
